Bartlesville, OK

3:12 AM CST on December 15, 2017 (GMT -0600)
Bartlesville Municipal

Weather History for KBVO - February, 2014

Change the Weather History Date:

Wednesday, February 12, 2014

  Actual Average Record
Temperature  
Mean Temperature 28 °F -  
Max Temperature 45 °F 50 °F 91 °F (1962)
Min Temperature 10 °F 26 °F -1 °F (1980)
Degree Days  
Heating Degree Days 38    
Moisture  
Dew Point 20 °F    
Average Humidity 74    
Maximum Humidity 89    
Minimum Humidity 49    
Precipitation  
Precipitation 0.00 in - - ()
Sea Level Pressure  
Sea Level Pressure 30.14 in    
Wind  
Wind Speed 2 mph (WSW)    
Max Wind Speed 10 mph    
Max Gust Speed -    
Visibility 9 miles    
Events      
Averages and records for this station are not official NWS values.
T = Trace of Precipitation, MM = Missing Value Source: NWS Daily Summary

Daily Weather History Graph

Daily Weather History Graph

Search for Another Location

Airport or City:

Trip Planner

Search our weather history database for the weather conditions in past years. The results will help you decide how hot, cold, wet, or windy it might be!

Date:

Astronomy

Feb. 12, 2014 Rise Set
Actual Time 7:15 AM CST 6:01 PM CST
Civil Twilight 6:48 AM CST 6:28 PM CST
Nautical Twilight 6:18 AM CST 6:58 PM CST
Astronomical Twilight 5:48 AM CST 7:28 PM CST
Moon 4:17 PM CST (2/12) 5:31 AM CST (2/12)
Length of Visible Light 11h 39m
Length of Day
10h 45m
Waxing Gibbous, 95% of the Moon is Illuminated
Feb 12
Waxing Gibbous
Feb 14
Full
Feb 22
Last Quarter
Mar 1
New
Mar 8
First Quarter

Hourly Weather History & Observations

Time (CST) Temp. Windchill Dew Point Humidity Pressure Visibility Wind Dir Wind Speed Gust Speed Precip Events Conditions
12:53 AM 12.0 °F - 8.1 °F 84% 30.27 in 10.0 mi Calm Calm - N/A   Clear
1:53 AM 10.9 °F - 8.1 °F 88% 30.25 in 9.0 mi Calm Calm - N/A   Clear
2:53 AM 10.9 °F - 8.1 °F 88% 30.26 in 10.0 mi Calm Calm - N/A   Clear
3:53 AM 12.9 °F - 9.0 °F 84% 30.22 in 10.0 mi Calm Calm - N/A   Clear
4:53 AM 12.9 °F - 10.0 °F 88% 30.20 in 9.0 mi Calm Calm - N/A   Clear
5:53 AM 14.0 °F - 10.9 °F 88% 30.21 in 9.0 mi Calm Calm - N/A   Clear
6:53 AM 12.9 °F - 10.0 °F 88% 30.22 in 9.0 mi Calm Calm - N/A   Clear
7:53 AM 16.0 °F - 12.0 °F 84% 30.21 in 8.0 mi Calm Calm - N/A   Clear
8:53 AM 21.9 °F - 15.1 °F 75% 30.21 in 10.0 mi Calm Calm - N/A   Clear
9:53 AM 28.9 °F 23.9 °F 17.1 °F 61% 30.19 in 10.0 mi South 4.6 mph - N/A   Clear
10:53 AM 36.0 °F 30.3 °F 19.9 °F 52% 30.17 in 10.0 mi SW 6.9 mph - N/A   Clear
11:53 AM 39.0 °F 34.0 °F 21.9 °F 50% 30.16 in 10.0 mi West 6.9 mph - N/A   Clear
12:53 PM 42.1 °F 36.1 °F 25.0 °F 51% 30.11 in 10.0 mi West 10.4 mph - N/A   Clear
1:53 PM 44.1 °F 40.1 °F 26.1 °F 49% 30.06 in 9.0 mi SW 6.9 mph - N/A   Clear
2:53 PM 45.0 °F 42.6 °F 28.0 °F 52% 30.05 in 8.0 mi Variable 4.6 mph - N/A   Clear
3:53 PM 43.0 °F 38.8 °F 28.0 °F 56% 30.06 in 8.0 mi Variable 6.9 mph - N/A   Clear
4:53 PM 39.0 °F 34.0 °F 28.0 °F 65% 30.08 in 9.0 mi Variable 6.9 mph - N/A   Clear
5:50 PM 33.8 °F 30.8 °F 26.6 °F 75% 30.08 in 8.0 mi NNW 3.5 mph - N/A   Mostly Cloudy
5:53 PM 34.0 °F 28.8 °F 27.0 °F 75% 30.09 in 8.0 mi Variable 5.8 mph - N/A   Mostly Cloudy
6:53 PM 35.1 °F - 28.0 °F 76% 30.08 in 9.0 mi Calm Calm - N/A   Overcast
7:53 PM 35.1 °F - 28.0 °F 76% 30.09 in 9.0 mi Calm Calm - N/A   Overcast
8:53 PM 35.1 °F - 28.0 °F 76% 30.09 in 9.0 mi Calm Calm - N/A   Overcast
9:53 PM 34.0 °F 31.0 °F 28.0 °F 79% 30.07 in 9.0 mi West 3.5 mph - N/A   Overcast
10:53 PM 34.0 °F - 28.0 °F 79% 30.06 in 9.0 mi Calm Calm - N/A   Overcast
11:19 PM 30.2 °F - 26.6 °F 86% 30.04 in 9.0 mi Calm Calm - N/A   Scattered Clouds
11:53 PM 28.9 °F - 26.1 °F 89% 30.03 in 8.0 mi Calm Calm - N/A   Clear